When you browse on this site, cookies collect data to enhance your experience and personalize the content and advertising you see.
Visit our Privacy Policy to learn more. By continuing to use the site, you agree to this use of cookies and data.
  • In Hungary
  • List of Countries
  • For 7 days
  • Water Temperature
  • Weather Map
  • News
  • Weather Widgets
  • user-avatar
    Login

    Hourly Weather Dubiny

    Today, 8 December, Sunday

    Time Temperature Precipitation Wind Pressure Humidity
    00:00 +3°C° 0 mm 6 mps 739 mmHg 85%
    01:00 +2°C° 0 mm 6 mps 739 mmHg 87%
    02:00 +2°C° 0 mm 6 mps 740 mmHg 88%
    03:00 +2°C° 0 mm 6 mps 740 mmHg 89%
    04:00 +1°C° 0 mm 5 mps 740 mmHg 90%
    05:00 +1°C° 0 mm 5 mps 740 mmHg 92%
    06:00 +1°C° 0 mm 5 mps 740 mmHg 91%
    07:00 +3°C° 0 mm 4 mps 740 mmHg 90%
    08:00 +3°C° 0 mm 4 mps 741 mmHg 90%
    09:00 +3°C° 0 mm 4 mps 741 mmHg 89%
    10:00 +3°C° 0 mm 5 mps 741 mmHg 88%
    11:00 +3°C° 0 mm 5 mps 741 mmHg 87%
    12:00 +3°C° 0 mm 5 mps 741 mmHg 85%
    13:00 +4°C° 0 mm 6 mps 740 mmHg 82%
    14:00 +4°C° 0 mm 6 mps 740 mmHg 80%
    15:00 +4°C° 0 mm 6 mps 739 mmHg 79%
    16:00 +4°C° 0 mm 6 mps 739 mmHg 78%
    17:00 +3°C° 0 mm 7 mps 738 mmHg 77%
    18:00 +3°C° 0 mm 7 mps 738 mmHg 77%
    19:00 +3°C° 0 mm 7 mps 738 mmHg 77%
    20:00 +3°C° 0 mm 7 mps 737 mmHg 78%
    21:00 +3°C° 0.1 mm 7 mps 737 mmHg 78%
    22:00 +4°C° 0.1 mm 7 mps 737 mmHg 79%
    23:00 +4°C° 0.1 mm 7 mps 736 mmHg 79%

    Tomorrow, 9 December, Monday

    Time Temperature Precipitation Wind Pressure Humidity
    00:00 +4°C° 0.6 mm 7 mps 736 mmHg 82%
    01:00 +4°C° 0.6 mm 7 mps 736 mmHg 86%
    02:00 +4°C° 0.6 mm 7 mps 736 mmHg 89%
    03:00 +4°C° 0.1 mm 6 mps 736 mmHg 88%
    04:00 +4°C° 0.1 mm 6 mps 735 mmHg 87%
    05:00 +5°C° 0.1 mm 5 mps 735 mmHg 86%
    06:00 +4°C° 0.3 mm 6 mps 735 mmHg 87%
    07:00 +4°C° 0.3 mm 6 mps 735 mmHg 87%
    08:00 +4°C° 0.3 mm 6 mps 736 mmHg 88%
    09:00 +4°C° 0.2 mm 6 mps 736 mmHg 88%
    10:00 +4°C° 0.2 mm 6 mps 736 mmHg 87%
    11:00 +4°C° 0.2 mm 6 mps 736 mmHg 87%
    12:00 +5°C° 0 mm 6 mps 736 mmHg 85%
    13:00 +6°C° 0 mm 5 mps 736 mmHg 84%
    14:00 +6°C° 0 mm 5 mps 736 mmHg 82%
    15:00 +6°C° 0 mm 5 mps 736 mmHg 83%
    16:00 +5°C° 0 mm 4 mps 736 mmHg 84%
    17:00 +5°C° 0 mm 4 mps 736 mmHg 85%
    18:00 +5°C° 0 mm 4 mps 737 mmHg 86%
    19:00 +4°C° 0 mm 4 mps 737 mmHg 87%
    20:00 +4°C° 0 mm 4 mps 738 mmHg 88%
    21:00 +4°C° 0 mm 4 mps 738 mmHg 87%
    22:00 +4°C° 0 mm 4 mps 738 mmHg 86%
    23:00 +3°C° 0 mm 4 mps 738 mmHg 86%

    Day after tomorrow, 10 December, Tuesday

    Time Temperature Precipitation Wind Pressure Humidity
    00:00 +3°C° 0 mm 4 mps 738 mmHg 86%
    01:00 +3°C° 0 mm 4 mps 739 mmHg 86%
    02:00 +3°C° 0 mm 4 mps 739 mmHg 86%
    03:00 +3°C° 0 mm 4 mps 739 mmHg 86%
    04:00 +3°C° 0 mm 4 mps 739 mmHg 87%
    05:00 +1°C° 0 mm 4 mps 739 mmHg 87%
    06:00 +3°C° 0 mm 4 mps 740 mmHg 86%
    07:00 +3°C° 0 mm 4 mps 740 mmHg 86%
    08:00 +3°C° 0 mm 4 mps 741 mmHg 86%
    09:00 +3°C° 0 mm 4 mps 742 mmHg 86%
    10:00 +3°C° 0 mm 4 mps 742 mmHg 86%
    11:00 +3°C° 0 mm 5 mps 743 mmHg 86%
    12:00 +3°C° 0 mm 5 mps 743 mmHg 82%
    13:00 +3°C° 0 mm 5 mps 744 mmHg 78%
    14:00 +3°C° 0 mm 5 mps 744 mmHg 74%
    15:00 +3°C° 0 mm 4 mps 745 mmHg 74%
    16:00 +3°C° 0 mm 4 mps 745 mmHg 73%
    17:00 +3°C° 0 mm 3 mps 745 mmHg 72%
    18:00 +3°C° 0 mm 3 mps 746 mmHg 74%
    19:00 +3°C° 0 mm 2 mps 747 mmHg 76%
    20:00 +3°C° 0 mm 2 mps 747 mmHg 78%
    21:00 +3°C° 0 mm 2 mps 748 mmHg 81%
    22:00 +4°C° 0 mm 1 mps 748 mmHg 84%
    23:00 +3°C° 0 mm 1 mps 748 mmHg 87%

    11 December, Wednesday

    Time Temperature Precipitation Wind Pressure Humidity
    00:00 +3°C° 0 mm 1 mps 748 mmHg 88%
    01:00 +3°C° 0 mm 1 mps 749 mmHg 89%
    02:00 +2°C° 0 mm 1 mps 749 mmHg 90%
    03:00 +2°C° 0 mm 1 mps 749 mmHg 90%
    04:00 +2°C° 0 mm 1 mps 749 mmHg 91%
    05:00 +2°C° 0 mm 1 mps 749 mmHg 91%
    06:00 +2°C° 0 mm 1 mps 749 mmHg 91%
    07:00 +2°C° 0 mm 1 mps 749 mmHg 92%
    08:00 +1°C° 0 mm 1 mps 749 mmHg 93%
    09:00 +1°C° 0 mm 2 mps 750 mmHg 90%
    10:00 +2°C° 0 mm 2 mps 750 mmHg 87%
    11:00 +1°C° 0 mm 3 mps 750 mmHg 84%
    12:00 +1°C° 0 mm 3 mps 750 mmHg 82%
    13:00 +2°C° 0 mm 3 mps 749 mmHg 80%
    14:00 +1°C° 0 mm 4 mps 749 mmHg 79%
    15:00 0°C° 0 mm 4 mps 749 mmHg 79%
    16:00 0°C° 0 mm 4 mps 748 mmHg 80%
    17:00 0°C° 0 mm 4 mps 748 mmHg 81%
    18:00 0°C° 0 mm 4 mps 748 mmHg 80%
    19:00 0°C° 0 mm 4 mps 748 mmHg 78%
    20:00 0°C° 0 mm 4 mps 748 mmHg 77%
    21:00 0°C° 0 mm 4 mps 747 mmHg 80%
    22:00 -1°C° 0 mm 4 mps 747 mmHg 82%
    23:00 -1°C° 0 mm 4 mps 747 mmHg 85%

    12 December, Thursday

    Time Temperature Precipitation Wind Pressure Humidity
    00:00 -1°C° 0 mm 4 mps 746 mmHg 86%
    01:00 -1°C° 0 mm 4 mps 746 mmHg 88%
    02:00 -2°C° 0 mm 4 mps 745 mmHg 89%
    03:00 -2°C° 0 mm 5 mps 745 mmHg 90%
    04:00 -2°C° 0 mm 5 mps 744 mmHg 92%
    05:00 -1°C° 0 mm 5 mps 743 mmHg 93%
    06:00 -1°C° 0 mm 5 mps 743 mmHg 93%
    07:00 -1°C° 0 mm 5 mps 743 mmHg 92%
    08:00 -1°C° 0 mm 5 mps 743 mmHg 92%
    09:00 -1°C° 0 mm 5 mps 743 mmHg 90%
    10:00 0°C° 0 mm 5 mps 743 mmHg 88%
    11:00 0°C° 0 mm 5 mps 743 mmHg 85%
    12:00 0°C° 0 mm 5 mps 743 mmHg 83%
    13:00 +1°C° 0 mm 4 mps 743 mmHg 81%
    14:00 +1°C° 0 mm 4 mps 743 mmHg 79%
    15:00 0°C° 0 mm 4 mps 743 mmHg 80%
    16:00 +1°C° 0 mm 3 mps 743 mmHg 81%
    17:00 +1°C° 0 mm 3 mps 743 mmHg 83%
    18:00 0°C° 0 mm 3 mps 743 mmHg 85%
    19:00 0°C° 0 mm 3 mps 743 mmHg 87%
    20:00 -1°C° 0 mm 3 mps 743 mmHg 89%
    21:00 -1°C° 0 mm 3 mps 743 mmHg 90%
    22:00 -1°C° 0 mm 3 mps 743 mmHg 90%
    23:00 -1°C° 0 mm 3 mps 743 mmHg 91%

    13 December, Friday

    Time Temperature Precipitation Wind Pressure Humidity
    00:00 -1°C° 0 mm 3 mps 742 mmHg 91%
    01:00 -1°C° 0 mm 3 mps 742 mmHg 91%
    02:00 -1°C° 0 mm 3 mps 742 mmHg 91%
    03:00 -1°C° 0 mm 3 mps 741 mmHg 92%
    04:00 -1°C° 0 mm 3 mps 741 mmHg 92%
    05:00 -2°C° 0 mm 3 mps 740 mmHg 93%
    06:00 -3°C° 0 mm 4 mps 740 mmHg 92%
    07:00 -2°C° 0 mm 4 mps 739 mmHg 91%
    08:00 -2°C° 0 mm 5 mps 738 mmHg 90%
    09:00 -1°C° 0 mm 5 mps 738 mmHg 86%
    10:00 -1°C° 0 mm 6 mps 737 mmHg 82%
    11:00 -1°C° 0 mm 7 mps 737 mmHg 77%
    12:00 0°C° 0 mm 7 mps 736 mmHg 76%
    13:00 +1°C° 0 mm 8 mps 735 mmHg 74%
    14:00 +1°C° 0 mm 8 mps 733 mmHg 72%
    15:00 +1°C° 0 mm 8 mps 733 mmHg 73%
    16:00 +1°C° 0 mm 8 mps 732 mmHg 73%
    17:00 0°C° 0 mm 8 mps 732 mmHg 74%
    18:00 0°C° 0 mm 8 mps 732 mmHg 76%
    19:00 0°C° 0 mm 7 mps 732 mmHg 77%
    20:00 -1°C° 0 mm 7 mps 731 mmHg 79%
    21:00 -1°C° 0.3 mm 7 mps 731 mmHg 84%
    22:00 -1°C° 0.3 mm 7 mps 731 mmHg 90%
    23:00 -2°C° 0.3 mm 6 mps 731 mmHg 96%
    Show more